Погода в Сермане

Россия / Пензенская область     53°33′44″N   46°21′52″E
темп.,
°C
ветер,
м/с
пор.,
м/с
влажн.,
%
обл.,
%
осадки,
мм/ч
давл.,
гПа
погр.,
м
7 мая, пт
пт700:00+10ю41367100 0.0 1015262
03:00+9ю41174100 0.0 1015234
06:00+10ю51372100 0.0 1014355
09:00+13ю61364100 0.0 1014687
12:00+16ю81350100 0.0 10131747
15:00+16ююз71259100 0.2 10131822
18:00+10сз2394100 2.3 1015301
21:00+8с3695100 3.1 1016324
8 мая, сб
сб800:00+8с3494100 0.0 1017241
03:00+7ссв359695 0.0 1018196
06:00+8всв469025 0.0 1017291
09:00+11вюв448784 0.0 1016578
12:00+13ю3675100 0.1 1015842
15:00+18ю575185 0.1 10131735
18:00+16ю486699 0.0 1012236
21:00+11ююз3879100 0.0 1013133
9 мая, вс
вс900:00+9ю3778100 0.0 1012124
03:00+12ююв51371100 0.0 1011324
06:00+11ю51374100 0.0 1012339
09:00+14ююз5967100 0.0 1012624
12:00+11ююв2392100 1.6 1013178
15:00+11зсз2397100 4.6 1014192
18:00+8с6994100 2.7 1016369
21:00+7с71194100 3.2 1019458
10 мая, пн
пн1000:00+6с71193100 0.0 1021479
03:00+6с51095100 0.3 1023424
06:00+6ссв61195100 0.8 1025487
09:00+7ссв71289100 0.9 1026517
12:00+9св71078100 0.0 1027566
15:00+11св6107280 0.0 1027651
18:00+11св5107354 0.0 1028686
21:00+6св411875 0.0 1029236
11 мая, вт
вт1100:00+7св4138854 0.0 1029317
03:00+6св6157910 0.0 1030364
06:00+7всв614765 0.0 1031417
09:00+13всв79596 0.0 1031648
12:00+16всв784943 0.0 1030824
15:00+17всв67495 0.0 1029970
18:00+15в48625 0.0 1029302
21:00+10в411739 0.0 1030219